レモン彗星

C/2015 XY1 ( Lemmon )

English version
Home page
Updated on May 20, 2019

---------------------------------------------------------------------

・ プロフィール

発見日 2015年12月4日
発見光度 20.4等
発見者 J. A. Johnson (Mount Lemmon)

・ 写真集

・ 軌道要素

Epoch 2018 May 2.0 TT = JDT 2458240.5
T 2018 Apr. 29.91862 TT                                 MPCW
q   7.9279375            (2000.0)            P               Q
z  -0.0005196      Peri.  196.35200     +0.04278820     +0.86104978
 +/-0.0000008      Node   281.61653     +0.96478334     +0.09614538
e   1.0041194      Incl.  148.84779     +0.25954244     -0.49934892
From 566 observations 2015 Dec. 4-2019 Mar. 26, mean residual 0".5.

・ 光度変化

        m1 = -5.0 + 5 logΔ + 20.0 log r

---------------------------------------------------------------------

軌道要素はM.P.E.C. 2019-J142に掲載されたものです。
光度グラフはComet for Windowsで作成したものです。

---------------------------------------------------------------------

Copyright(C) Seiichi Yoshida (comet@aerith.net). All rights reserved.